GFSSW_850_spd_057.txt.gz
Wind_Speed
15 14 14 14 13 12 11 10 10 10 12 12 12 13 14 15 14 12 11 10 10 14 14 11 10 11 11 14 16 17 5 12 19 18 17 23 15 28 25 19 24 20 8 10 18
16 15 15 14 14 12 12 11 11 11 12 11 11 11 13 15 16 10 2 6 11 15 17 14 8 8 10 9 12 9 7 17 14 15 17 21 19 24 18 14 18 19 3 3 21
18 17 15 15 14 12 12 11 12 12 13 13 13 14 15 13 6 0 4 7 11 10 9 10 5 9 13 22 22 13 17 14 19 25 31 28 27 28 20 10 21 18 19 9 13
20 19 17 16 15 14 14 13 12 13 14 15 16 15 11 4 4 3 7 6 6 5 4 2 5 14 4 8 17 16 22 25 27 31 33 25 32 26 25 23 29 31 26 27 19
21 20 19 17 16 15 13 13 14 16 15 14 14 12 6 5 4 4 9 6 7 5 8 11 13 14 10 8 21 18 17 26 30 30 32 36 30 26 31 33 35 30 27 27 25
22 21 21 19 17 16 15 15 16 17 14 11 11 9 6 5 2 5 8 8 7 5 7 7 7 13 11 10 8 15 20 22 27 28 31 24 27 28 35 34 36 35 28 26 25
22 22 21 19 17 15 15 14 16 14 12 7 8 9 8 9 3 3 8 6 6 5 4 7 12 10 16 9 14 21 11 15 17 20 15 17 19 28 35 30 29 35 39 35 27
21 22 21 20 18 15 13 13 15 12 7 8 5 5 7 3 3 4 6 8 3 5 9 11 6 7 12 13 14 7 8 7 1 10 20 14 26 22 25 32 33 27 37 43 33
24 23 22 19 17 15 12 13 14 11 8 6 2 4 10 5 0 6 5 7 8 9 10 10 9 8 11 6 5 6 8 12 16 13 12 11 25 24 31 27 25 34 34 35 44
25 25 24 19 13 12 9 12 9 7 4 8 5 8 8 8 5 8 7 5 9 13 13 13 12 6 4 4 5 8 8 9 12 5 7 13 20 17 25 31 31 31 31 34 39
26 25 24 17 11 7 7 10 9 3 7 12 14 12 18 4 7 6 4 6 11 13 5 8 5 6 11 9 10 11 12 12 14 11 13 12 18 20 19 23 22 34 35 33 35
29 23 21 14 7 4 5 8 9 9 10 19 19 19 10 7 5 10 6 4 10 7 9 7 5 8 13 13 13 12 13 12 10 10 14 13 19 19 18 18 25 27 32 38 40
30 22 16 6 3 3 5 6 12 11 4 12 10 5 8 4 11 11 1 6 6 7 8 6 9 14 13 11 14 14 14 13 14 11 14 9 16 22 21 20 28 32 31 33 43
29 20 13 5 4 11 5 9 11 12 2 6 6 4 3 6 8 11 3 3 3 7 9 6 11 13 10 10 11 10 13 17 16 12 9 4 16 12 17 22 15 24 30 34 33
28 19 6 6 6 9 11 11 13 1 3 5 7 6 5 6 8 12 7 9 9 12 7 11 13 8 8 6 11 12 12 16 16 14 13 12 11 15 9 18 18 16 29 36 38
25 17 2 2 4 11 13 10 8 1 2 5 7 1 3 7 12 2 8 12 20 12 11 15 18 3 3 7 8 13 12 9 7 3 11 14 11 20 14 19 20 20 31 36 39
22 12 3 2 6 13 12 12 1 2 3 7 6 12 10 14 9 6 1 6 7 6 4 7 6 6 6 5 5 8 8 4 4 2 5 10 11 16 19 20 19 18 28 38 39
16 8 1 3 5 12 10 3 2 8 11 12 11 13 14 6 4 6 3 5 8 10 5 5 5 9 7 3 6 5 4 4 5 10 15 13 9 14 10 18 24 23 32 33 36
12 1 5 3 7 12 7 2 3 9 10 12 13 10 7 16 12 9 7 5 6 6 3 3 4 10 16 15 10 11 5 10 10 15 8 11 18 16 20 5 15 25 36 40 42
9 2 6 1 7 7 2 4 4 13 11 9 7 7 11 12 9 10 8 8 6 10 2 4 13 7 11 14 9 3 7 7 4 6 5 4 11 5 13 16 18 21 29 41 50
3 2 1 5 6 2 1 4 11 16 11 4 8 8 9 9 10 11 6 14 10 10 9 6 1 7 10 4 2 4 3 2 5 6 3 5 3 2 9 11 16 17 38 37 41
7 1 3 3 1 3 2 9 17 16 7 8 6 4 5 8 7 10 7 8 12 10 5 5 4 5 16 19 5 4 5 4 2 6 3 3 7 3 6 10 14 18 32 35 38
9 4 2 2 1 2 8 11 21 8 1 3 5 10 6 7 7 2 8 13 5 4 1 1 3 5 10 4 1 2 5 7 5 4 7 7 6 2 3 11 14 16 23 25 31
7 4 5 6 12 7 8 8 11 18 9 8 5 8 8 9 7 4 9 6 9 8 5 8 4 8 8 12 14 19 20 17 6 4 10 12 10 26 6 5 7 20 21 27 25
10 4 7 4 6 9 10 9 15 12 11 17 8 12 11 7 7 7 11 13 12 7 2 3 5 9 14 20 22 24 22 20 18 11 12 17 23 5 4 6 3 6 15 21 40
7 7 11 11 13 9 11 5 10 14 10 7 7 11 9 8 11 15 14 8 5 4 3 6 4 8 18 19 17 20 18 17 15 11 6 16 11 12 6 11 4 8 20 32 34
9 7 7 8 7 7 5 12 14 13 8 8 9 12 13 15 25 24 22 24 14 12 14 9 3 1 7 12 18 6 8 10 10 10 12 3 11 16 12 1 9 20 22 30 27

GFSSW_850_spd_060.txt.gz
Wind_Speed
16 15 14 14 14 13 11 11 10 10 11 13 13 14 15 16 15 14 15 9 6 6 8 6 7 9 11 9 12 7 2 8 7 11 9 21 7 29 26 21 26 13 5 5 20
18 17 16 15 14 13 12 11 11 11 12 13 14 16 17 17 13 8 4 2 5 8 9 9 9 7 7 9 8 7 5 8 6 10 9 18 23 26 23 30 24 21 11 6 15
18 17 17 16 14 13 12 12 11 12 13 15 15 16 15 11 4 4 2 3 5 4 6 7 8 4 5 13 7 5 11 6 10 12 16 21 28 27 19 18 25 12 19 15 9
17 17 17 16 14 14 12 11 11 12 14 16 15 13 9 4 2 6 9 9 5 5 5 5 4 3 3 5 7 8 14 11 15 22 22 19 33 25 25 30 37 29 24 15 11
19 18 17 16 15 13 12 12 12 13 14 14 12 9 5 4 3 5 7 5 4 5 8 6 7 7 3 5 8 8 10 19 22 25 24 26 26 26 36 37 35 38 26 22 15
21 20 19 17 16 15 12 12 11 13 13 12 9 7 4 3 3 4 6 6 4 2 4 7 5 8 2 2 1 7 9 15 15 20 20 17 22 25 42 36 31 36 33 26 25
22 22 22 19 16 15 13 11 10 11 11 9 9 7 5 6 2 4 6 7 11 8 4 6 8 7 7 8 8 13 7 8 6 5 5 15 18 21 28 29 29 31 37 33 26
24 23 23 22 18 14 12 10 10 10 9 7 6 6 5 4 3 1 7 2 6 2 6 8 11 6 3 5 7 5 1 1 3 6 5 6 23 19 27 29 32 30 32 38 34
27 24 23 23 16 12 9 8 9 7 7 5 3 4 5 4 3 1 3 2 8 4 7 9 6 6 2 2 4 3 4 4 5 6 6 7 17 6 18 19 26 33 34 33 37
28 26 22 20 14 9 6 7 7 3 4 4 5 5 2 5 4 6 3 2 7 15 15 5 5 2 2 3 4 6 6 4 3 3 2 9 15 6 16 18 17 20 25 30 38
28 26 21 17 10 4 10 4 11 1 14 10 11 9 17 5 4 2 6 3 7 11 2 5 3 4 8 9 11 7 7 6 4 5 4 8 16 13 8 13 15 23 26 30 32
27 25 17 11 6 5 7 9 11 8 9 15 18 18 19 17 2 3 4 2 3 4 5 7 3 3 5 6 6 7 5 7 4 9 11 9 20 18 11 7 18 23 28 30 33
25 23 14 3 4 5 7 8 9 12 4 10 6 10 9 9 12 13 9 4 3 1 5 2 9 9 7 7 6 5 4 6 7 11 5 6 19 12 12 12 19 21 25 29 31
23 20 12 2 2 8 9 10 16 13 3 4 4 4 6 5 5 9 12 7 1 5 4 6 8 4 6 4 3 2 6 9 11 8 3 4 13 14 14 11 8 16 24 30 36
23 18 4 4 3 8 11 11 11 11 4 7 4 5 3 5 5 5 17 10 6 7 5 10 5 8 4 1 1 4 3 4 5 8 2 5 6 9 14 19 18 15 25 32 36
22 14 1 1 4 9 12 12 6 4 1 1 3 4 1 9 12 7 13 13 11 4 4 11 12 3 2 1 1 2 4 6 5 1 5 6 7 21 9 13 13 14 27 26 27
16 7 1 2 6 12 9 4 4 4 7 7 6 6 6 5 6 1 5 4 2 3 4 5 2 3 3 2 4 5 4 4 4 2 5 1 6 13 12 15 18 8 17 26 30
9 5 6 4 6 17 10 4 6 7 8 6 6 9 2 12 7 8 6 2 6 2 3 1 5 4 5 2 5 4 6 4 4 4 11 17 8 8 8 13 5 8 14 25 35
7 7 5 1 9 11 4 5 2 5 7 6 6 3 5 9 6 8 7 5 4 4 2 2 4 5 9 8 1 2 3 6 3 8 5 8 13 11 3 6 11 12 14 23 33
5 3 2 5 9 6 5 2 2 3 4 3 3 4 5 8 7 6 5 2 2 5 2 3 6 7 4 5 2 4 3 2 1 3 5 4 8 8 7 10 9 11 12 23 32
3 2 4 5 6 4 3 4 5 16 11 2 2 5 4 2 4 5 3 10 3 2 6 3 2 4 3 3 3 4 2 2 1 2 3 5 6 6 10 9 8 13 22 27 31
4 2 6 4 4 1 1 3 8 9 1 2 1 3 1 4 4 4 6 4 4 3 2 2 1 4 8 18 12 10 5 4 3 5 3 5 9 9 6 6 9 14 25 28 24
8 5 2 4 2 3 6 5 4 7 4 5 5 5 5 4 2 4 6 7 7 5 5 4 2 4 8 5 5 1 4 4 3 3 6 7 7 4 7 10 10 15 20 22 25
6 4 5 4 3 2 5 5 5 11 5 7 4 7 5 3 3 5 8 5 10 9 12 10 5 8 8 9 4 12 18 17 12 5 11 13 22 14 11 11 5 16 19 25 24
7 3 4 4 3 6 2 4 9 5 8 7 4 2 3 4 4 5 4 6 9 13 5 7 7 6 12 17 16 21 21 19 18 17 10 14 7 6 9 14 6 12 9 29 23
5 6 6 8 11 6 3 2 5 9 5 7 3 7 4 4 8 14 11 4 7 7 7 3 5 4 15 15 15 15 19 12 7 8 12 11 11 3 15 16 13 18 21 24 22
6 5 4 6 5 3 2 4 8 10 10 13 7 6 6 7 21 22 23 20 14 11 10 7 5 1 17 5 11 10 3 1 3 8 6 6 2 8 11 13 17 20 26 17 19

GFSSW_850_spd_063.txt.gz
Wind_Speed
15 14 14 14 13 13 12 11 11 11 12 14 15 16 17 18 15 14 16 8 5 6 6 7 10 10 9 9 10 4 2 8 8 8 2 16 4 2 8 13 22 13 22 29 9
17 15 14 14 13 12 12 11 10 11 12 14 15 16 17 16 10 5 2 3 3 3 6 6 10 8 6 8 7 5 5 9 5 8 11 22 10 20 11 20 16 27 26 29 10
19 18 16 15 14 13 11 10 10 11 13 15 15 14 13 11 4 8 3 3 3 4 4 7 8 6 5 6 7 5 6 3 2 5 7 18 15 19 12 16 9 20 29 30 16
20 19 19 17 16 14 12 11 10 11 14 15 14 10 8 5 2 6 10 7 5 4 4 3 5 4 4 5 6 4 4 3 3 13 14 11 23 18 23 33 22 21 26 23 22
21 21 20 20 18 15 14 13 10 10 12 13 11 7 5 4 1 6 5 4 5 4 3 1 2 2 2 3 4 3 4 10 12 15 18 22 20 20 37 35 21 21 20 23 23
23 22 22 21 20 17 14 12 10 9 10 11 9 7 3 3 2 3 3 6 5 7 3 1 1 4 2 2 1 3 4 10 6 9 10 11 14 17 38 23 25 20 23 21 23
23 23 23 21 21 17 14 11 9 8 8 9 8 6 7 6 4 2 3 6 8 8 6 5 6 5 2 4 2 5 4 5 5 8 8 11 13 18 29 31 27 26 23 23 23
26 24 22 21 20 15 11 9 8 8 7 6 6 6 6 4 4 3 5 4 3 2 7 7 10 7 2 4 6 4 4 3 5 2 6 13 18 4 8 12 19 19 20 15 19
26 25 22 21 18 12 8 7 8 6 4 3 4 4 4 4 4 2 1 2 6 5 7 10 10 3 2 3 5 6 1 2 6 4 4 6 3 5 14 16 18 23 25 29 30
25 25 21 17 14 8 8 9 6 6 6 2 3 4 0 7 5 7 3 4 6 9 6 1 3 2 3 4 2 3 3 4 5 6 4 11 8 6 11 8 13 19 24 30 32
24 23 18 13 10 7 14 4 8 2 15 8 9 11 13 4 5 7 2 5 3 4 3 3 4 3 6 7 6 3 3 4 5 6 7 11 17 9 9 8 11 17 22 25 29
22 20 14 6 6 6 8 9 9 8 9 15 15 16 17 13 8 7 3 4 1 2 3 6 2 6 4 3 4 2 3 1 4 4 5 9 22 15 5 6 9 16 19 23 29
21 19 11 1 2 3 7 8 7 11 2 9 3 4 5 8 7 10 5 4 1 2 1 3 7 6 1 5 3 1 3 2 3 5 4 6 15 8 2 5 16 15 16 26 32
19 17 8 3 4 5 6 8 9 8 3 4 2 2 4 5 4 8 13 8 1 6 2 4 4 2 5 3 0 3 2 2 6 6 5 4 13 8 5 8 5 16 23 27 28
19 14 3 4 3 3 7 9 6 4 4 3 0 3 2 5 4 5 12 12 7 6 5 8 4 5 3 1 1 4 3 3 2 4 4 2 5 13 15 17 9 9 21 16 18
15 7 2 4 2 8 11 4 2 4 2 3 3 5 4 6 7 10 7 10 2 4 3 7 1 2 3 1 1 3 3 5 4 2 2 8 7 13 1 3 6 7 19 16 19
9 5 5 4 4 12 6 1 4 4 5 5 3 6 3 4 5 5 1 5 1 2 2 4 2 2 5 3 4 6 5 4 4 2 5 3 3 12 15 15 6 5 16 20 21
7 7 8 2 9 13 5 4 5 2 2 2 4 5 3 7 5 7 3 3 5 4 2 2 4 5 3 3 4 5 6 4 4 3 10 9 7 7 5 6 6 13 17 23 28
6 6 5 5 10 13 4 4 4 1 3 3 6 2 3 4 2 7 5 3 2 2 3 2 5 4 6 3 5 2 3 5 4 4 2 5 9 9 16 7 8 11 17 26 32
3 4 6 8 12 10 4 2 2 2 4 1 1 1 3 2 1 4 2 4 5 4 6 2 4 6 3 3 3 6 4 1 2 3 4 5 7 10 10 14 7 10 17 27 34
4 2 7 10 9 4 3 4 4 11 11 5 5 4 5 2 2 2 5 6 5 3 4 4 5 4 1 4 6 2 1 2 2 4 3 4 5 5 10 10 9 12 23 27 34
5 2 6 9 5 2 1 2 6 6 9 4 5 6 5 4 4 4 5 5 6 7 5 5 4 4 9 13 8 4 6 6 4 5 3 4 19 9 8 8 10 17 24 26 25
7 5 5 5 2 3 6 5 4 3 4 4 3 1 2 3 2 5 4 4 13 5 5 5 1 3 7 4 4 3 4 4 2 2 14 9 12 5 11 14 18 20 23 20 25
6 3 4 4 4 2 3 4 5 9 1 3 4 1 4 3 4 5 4 4 4 1 12 7 5 7 7 9 3 10 12 14 13 5 8 15 29 19 11 10 13 21 15 17 30
7 2 2 4 2 2 3 3 3 4 7 8 4 2 4 4 4 6 5 6 10 12 7 7 7 7 10 14 13 17 19 18 17 21 15 19 18 24 7 8 10 17 19 21 20
6 6 5 6 9 5 1 0 2 3 3 5 2 7 6 6 7 8 6 5 9 6 4 2 4 4 4 10 16 19 17 17 18 14 9 11 17 13 11 16 12 14 17 20 18
5 4 4 4 4 2 3 1 3 9 9 7 5 5 6 9 12 23 24 24 17 8 6 6 4 2 16 11 10 11 14 7 4 6 4 8 11 6 12 11 14 19 21 21 22

GFSSW_850_spd_069.txt.gz
Wind_Speed
16 16 15 14 13 12 11 9 8 8 7 8 10 12 12 13 11 9 7 6 5 8 11 10 7 7 8 8 9 8 7 12 18 16 9 3 2 1 5 11 7 3 9 16 21
15 15 15 15 14 13 11 10 9 8 8 10 11 11 10 9 7 7 6 3 1 1 4 6 6 6 4 6 8 10 10 17 6 9 11 9 8 10 7 14 15 11 12 17 17
17 16 15 15 14 14 12 11 9 9 9 10 11 9 6 7 3 6 5 6 7 5 3 6 5 7 6 4 7 7 12 8 7 13 14 17 11 7 10 17 10 15 23 24 18
18 17 16 14 14 13 13 10 9 8 8 9 9 7 6 3 2 3 5 5 6 6 7 4 5 6 4 7 4 7 6 13 16 14 6 8 8 8 14 24 17 17 22 15 18
18 18 17 15 13 12 12 9 7 7 7 7 8 6 4 2 3 2 2 4 5 5 4 4 4 4 5 3 3 7 3 5 8 10 11 13 18 18 19 21 25 15 15 20 16
20 18 17 15 12 11 9 6 6 5 5 5 6 5 4 2 5 2 1 3 5 5 2 1 1 1 3 3 4 2 3 7 8 11 8 10 20 13 12 7 18 24 20 12 7
19 19 18 15 12 8 5 4 4 4 4 4 4 5 5 7 6 5 3 3 3 5 3 2 1 2 2 2 0 2 6 8 12 14 12 13 17 22 5 7 18 14 10 9 5
18 17 16 14 11 7 4 3 3 3 3 4 3 5 4 8 9 7 5 4 3 3 4 4 5 4 2 0 2 1 2 4 3 2 6 13 14 2 12 1 9 9 7 7 6
18 15 13 11 7 6 4 5 2 1 1 2 2 2 2 6 5 5 3 4 2 4 4 6 2 1 1 1 2 1 3 3 2 5 4 3 5 3 9 11 12 11 7 7 8
18 15 11 6 5 8 3 6 5 3 4 1 2 1 2 2 3 6 6 5 4 3 3 3 2 3 2 3 3 1 2 2 5 2 7 7 8 12 14 11 13 14 15 8 5
18 13 10 3 4 5 6 2 3 2 6 4 4 4 6 2 3 7 4 3 4 1 2 1 4 4 3 4 3 3 4 5 5 2 9 11 13 13 18 16 15 16 17 13 9
18 12 7 2 4 4 6 4 6 5 6 3 8 12 11 9 5 5 8 4 2 2 1 3 7 5 2 2 4 5 5 6 7 5 8 14 19 17 14 15 18 17 13 12 11
18 11 3 5 3 4 5 7 7 7 2 4 2 2 1 6 4 4 8 5 4 3 4 4 1 5 3 2 4 6 8 4 5 7 9 12 13 3 4 9 7 3 7 8 14
14 9 0 7 5 3 1 6 7 5 2 1 2 1 1 2 4 4 10 6 2 3 4 5 2 5 6 7 7 7 5 3 4 6 8 6 9 12 9 2 4 2 6 7 13
11 6 3 8 5 1 7 9 4 1 2 2 2 2 4 4 5 1 5 8 11 7 4 2 3 4 7 4 5 2 2 2 5 11 10 13 7 3 3 6 5 6 3 9 10
9 5 6 6 2 8 9 2 2 2 4 3 1 3 3 1 2 6 2 4 2 5 6 12 2 3 2 3 2 3 2 7 1 3 6 3 5 4 4 5 7 11 8 13 6
8 6 5 3 4 9 5 3 2 3 2 1 0 2 2 2 2 3 3 2 5 5 9 4 4 1 2 4 2 2 4 4 3 4 3 5 8 11 7 7 11 13 16 16 12
6 4 3 5 7 8 2 1 5 1 2 1 1 5 4 1 1 4 2 3 3 2 4 7 9 6 5 4 1 3 3 4 5 4 5 5 9 2 5 8 14 11 8 12 14
3 3 4 7 7 7 1 2 3 3 1 3 5 3 2 3 3 3 4 5 5 5 5 4 5 1 5 2 2 3 6 2 6 8 7 6 8 10 10 4 3 1 7 15 19
5 6 6 7 10 4 1 3 3 2 2 2 4 5 4 3 3 3 3 2 3 5 1 1 6 5 4 0 4 8 7 3 3 4 6 6 13 9 10 9 3 10 12 17 23
2 2 2 8 10 1 1 3 4 5 2 5 4 5 6 7 7 4 4 3 4 6 3 3 5 5 3 8 10 6 8 5 3 4 4 6 5 3 5 9 9 8 15 24 26
3 0 3 7 2 2 1 2 5 5 2 4 4 7 7 5 5 8 9 8 6 8 5 6 3 10 16 10 6 8 10 13 7 6 5 6 9 10 13 7 9 20 28 21 18
7 3 4 7 1 2 5 4 5 3 2 2 3 3 1 4 4 7 8 4 5 7 6 6 5 7 6 4 3 5 10 12 7 6 15 12 10 6 10 16 27 24 23 16 18
6 2 4 7 5 2 4 5 4 4 3 3 4 1 2 4 6 5 4 2 3 2 2 6 10 12 13 11 1 5 9 12 13 10 16 18 27 25 26 23 20 23 16 15 17
7 2 2 3 2 3 2 4 6 5 3 4 1 5 3 4 6 9 10 7 4 6 10 4 16 15 18 20 19 22 21 20 21 21 21 23 25 28 23 21 23 20 18 17 20
4 3 4 3 3 3 2 3 3 4 2 4 6 5 5 7 10 19 18 15 15 6 8 4 11 13 21 14 15 18 22 23 26 26 27 27 29 27 28 17 14 17 16 19 19
7 3 1 3 2 2 2 3 2 3 7 13 6 8 13 16 12 17 22 23 17 12 12 9 6 5 13 8 9 13 25 26 26 20 17 19 22 13 11 14 16 19 19 21 21

GFSSW_850_spd_072.txt.gz
Wind_Speed
14 13 12 11 10 10 8 7 6 6 6 7 9 10 10 9 6 6 5 5 4 6 11 8 6 7 10 14 17 15 14 19 24 21 16 11 12 9 13 13 12 8 9 11 17
14 13 13 12 11 10 9 7 6 6 6 7 9 10 8 6 5 3 3 4 2 2 0 4 8 9 13 15 13 16 16 27 22 20 18 16 19 12 8 14 16 14 8 13 18
15 14 13 12 11 10 9 8 6 6 6 6 8 8 5 4 2 4 6 7 8 7 2 4 6 10 15 14 20 18 23 21 24 19 21 21 23 22 16 14 18 15 15 19 18
14 14 14 12 11 10 9 8 7 7 6 5 6 6 4 1 1 3 5 6 7 7 3 2 6 10 12 14 17 16 19 21 25 20 19 18 21 24 21 21 8 16 19 22 19
15 14 14 13 12 11 10 8 6 7 6 5 4 4 2 4 3 4 2 4 5 4 2 2 3 6 11 8 12 16 19 13 17 22 25 22 23 20 21 17 11 23 18 18 20
16 14 12 11 11 11 9 7 6 5 5 4 4 3 2 8 7 4 1 2 1 0 1 1 1 2 5 10 10 4 14 16 18 19 21 20 23 21 25 15 10 23 18 20 16
15 15 12 10 8 6 5 4 4 3 3 3 3 3 5 1 7 5 1 3 4 2 2 2 2 5 2 7 6 12 13 15 18 21 22 22 22 25 22 14 23 25 21 16 14
15 13 12 10 7 5 4 4 3 2 3 2 2 2 4 7 9 5 5 5 5 4 4 4 4 7 8 3 9 11 11 15 14 11 19 15 19 3 3 15 20 22 24 25 15
15 11 9 7 4 5 3 5 2 1 1 1 1 1 3 7 5 4 4 3 3 4 5 4 6 9 6 11 10 10 13 8 7 4 4 11 14 20 4 8 6 6 14 16 14
13 10 6 3 3 5 1 4 3 1 2 1 2 4 5 7 5 6 5 5 6 4 5 8 9 10 9 9 9 6 9 7 11 7 9 13 13 12 13 12 12 15 17 15 14
13 8 4 1 2 4 4 3 2 2 5 5 1 4 3 2 6 8 6 5 5 8 10 7 10 11 7 4 9 8 9 11 8 6 10 13 16 16 19 19 19 18 18 19 14
13 7 2 4 3 3 6 2 4 5 6 6 7 9 8 5 4 9 10 9 8 8 4 9 13 7 3 6 8 10 13 12 8 8 9 15 19 20 20 20 24 23 22 21 17
11 6 1 7 3 3 4 4 7 7 6 3 4 4 6 9 6 6 13 11 10 9 7 10 4 3 9 8 10 12 12 12 11 13 16 19 20 21 7 12 11 13 14 10 9
10 5 4 8 4 2 1 8 8 4 5 9 6 5 5 4 5 7 11 9 7 9 5 8 6 8 10 11 11 14 6 8 10 12 12 8 10 12 10 12 9 13 11 9 5
9 6 7 6 7 1 6 10 4 2 4 7 5 3 4 9 5 7 7 12 15 10 7 4 11 10 12 13 8 13 1 9 12 15 18 19 11 14 4 9 9 6 3 6 3
8 7 7 4 2 5 8 1 1 5 4 7 4 5 7 8 7 5 7 8 9 14 16 18 11 9 12 4 8 1 9 12 17 13 15 19 14 10 9 7 10 11 4 4 3
7 5 4 2 2 7 3 2 5 6 3 4 5 5 8 11 10 8 11 13 12 13 17 19 18 14 10 12 9 11 12 10 10 11 11 6 6 14 4 5 3 6 5 4 6
3 2 3 4 6 5 1 5 7 2 4 1 4 9 12 6 11 9 12 13 12 15 15 15 14 15 13 16 15 11 9 10 17 12 10 12 7 2 5 4 5 3 3 3 3
8 7 4 6 5 3 6 7 4 2 3 4 9 11 10 6 6 7 13 15 14 9 14 11 15 3 6 7 9 11 11 8 12 16 14 16 14 7 13 9 8 5 5 8 8
6 5 6 5 5 1 5 5 4 3 3 4 6 4 8 5 6 4 7 1 6 9 8 10 12 14 8 7 15 13 12 8 10 11 18 14 13 8 12 7 7 5 6 9 15
1 4 5 5 5 6 5 4 5 5 5 5 8 11 12 12 12 13 7 6 6 6 8 12 10 14 9 14 16 8 13 12 14 13 11 12 6 10 2 3 5 5 11 18 20
2 3 3 4 6 2 5 3 4 10 9 11 8 14 17 16 16 16 14 11 2 8 11 13 7 14 18 16 12 13 18 15 12 15 11 13 16 6 6 6 4 12 18 16 18
8 3 3 3 3 3 5 10 7 9 7 4 6 5 5 10 9 11 12 9 10 11 8 8 9 12 16 8 5 12 17 16 16 16 19 13 8 9 9 13 17 21 18 19 17
5 3 0 3 4 5 5 5 5 3 10 7 9 10 11 14 14 11 12 6 6 11 3 6 15 18 16 19 6 7 7 13 17 13 17 20 21 20 22 20 18 22 21 18 17
6 2 2 3 1 8 3 5 9 6 5 7 5 6 8 9 13 16 17 14 13 13 14 11 20 21 21 22 21 22 21 21 22 22 22 23 25 23 24 22 21 22 18 18 19
5 5 4 9 6 8 1 3 8 7 5 8 12 13 12 15 15 19 19 19 19 15 14 15 18 18 23 21 21 23 23 26 26 26 27 27 29 25 31 27 18 15 19 20 22
6 5 3 5 3 5 4 5 6 7 9 10 11 12 13 16 21 22 22 22 17 15 13 11 7 6 14 16 13 15 21 21 24 25 22 24 25 18 16 13 14 17 19 23 28

GFSSW_850_spd_075.txt.gz
Wind_Speed
13 12 11 10 9 8 7 6 5 5 4 5 6 8 8 6 5 8 5 8 8 9 10 10 10 12 15 21 25 25 18 21 25 24 19 18 14 15 16 21 31 11 10 9 9
14 14 12 11 10 9 8 7 6 5 5 5 5 6 5 3 3 5 8 4 1 0 2 8 12 14 19 20 27 24 17 27 25 22 22 24 22 16 14 17 27 30 17 8 9
13 14 14 13 12 11 9 9 8 7 6 5 5 5 3 3 8 5 3 4 5 3 3 7 10 12 20 24 23 25 24 24 24 28 30 27 28 16 18 14 19 27 32 14 14
14 13 13 13 13 11 10 10 9 8 7 5 4 3 1 3 2 6 4 5 5 4 1 4 9 15 18 19 24 23 29 27 27 32 30 22 24 24 27 23 20 18 36 29 21
14 13 13 12 11 11 10 9 7 7 6 5 4 3 3 7 7 6 4 3 2 1 3 3 8 11 16 16 20 21 21 24 27 24 29 28 25 26 30 24 17 17 24 40 29
13 11 11 12 12 12 10 6 5 4 5 4 3 3 4 13 4 5 5 4 3 3 4 5 4 6 12 16 13 19 15 21 27 25 24 25 26 27 34 29 29 22 26 37 36
15 11 9 9 10 8 7 6 4 3 3 4 3 3 10 4 5 6 6 5 5 5 7 6 7 9 7 11 17 15 17 18 20 22 22 23 25 28 32 30 29 25 25 27 26
13 12 9 7 6 5 5 5 5 3 2 2 3 3 11 9 8 8 7 7 8 7 8 8 8 12 14 15 10 16 18 18 20 22 25 21 26 25 32 31 31 22 26 22 27
9 8 8 5 3 5 3 6 3 1 1 2 1 5 9 8 11 9 9 7 7 8 8 9 10 15 15 12 15 17 15 18 19 5 8 18 25 20 28 14 16 19 23 24 30
10 7 3 1 1 4 3 3 2 2 2 2 7 7 8 10 10 8 8 9 9 9 10 11 14 13 13 13 14 12 15 12 11 8 13 17 20 19 17 15 18 19 19 21 23
9 5 2 3 2 4 4 5 3 4 9 12 0 8 3 5 7 10 9 9 10 11 13 16 11 14 16 13 12 13 16 16 16 9 10 13 19 20 21 22 19 21 21 21 22
12 4 1 4 3 3 6 4 3 6 10 10 10 11 8 6 7 12 11 13 14 13 14 9 14 16 14 8 11 14 17 17 17 14 13 16 20 20 20 22 25 24 25 23 24
12 5 2 6 3 2 2 2 4 6 8 8 8 11 10 12 12 8 14 16 15 14 15 15 17 6 11 12 14 16 16 16 17 15 15 16 25 25 23 33 31 32 29 27 26
10 5 4 5 2 1 2 6 6 4 6 14 10 9 10 10 13 13 11 16 12 14 14 12 15 4 12 13 13 16 14 15 10 13 14 16 17 18 18 13 14 15 16 18 9
8 4 6 4 1 5 6 9 5 3 5 10 11 6 7 15 4 14 11 14 17 17 12 17 14 10 15 15 13 16 17 10 15 16 18 21 14 18 20 17 10 9 14 16 16
7 3 5 3 3 5 8 6 2 7 6 7 5 8 13 16 15 12 10 15 18 19 19 23 23 16 16 15 12 13 13 15 18 16 17 22 18 18 16 15 13 10 9 9 9
7 3 3 2 5 8 5 5 7 7 4 5 5 10 12 13 12 14 15 17 16 17 19 22 23 24 23 18 18 13 15 13 16 15 17 18 7 12 6 4 2 15 13 10 9
10 9 8 5 7 6 4 9 11 5 6 5 7 12 15 15 16 13 15 16 17 19 17 18 19 17 17 15 19 17 16 12 18 16 18 4 8 8 8 13 10 7 11 8 11
14 9 9 7 6 5 9 9 10 10 5 8 12 15 17 11 4 10 13 17 18 18 17 15 21 11 4 11 14 17 18 19 15 19 17 20 28 26 15 12 8 12 12 12 10
8 6 8 8 6 6 10 12 13 0 8 10 14 9 14 12 9 12 13 8 5 11 12 17 18 17 13 13 16 18 18 15 7 13 21 19 21 15 18 15 15 13 11 12 8
4 6 3 6 5 11 9 12 8 10 9 7 12 15 16 16 16 18 18 16 10 10 12 13 16 20 18 19 20 15 17 20 18 15 15 17 12 14 10 3 10 11 9 8 16
4 4 1 1 9 7 7 6 5 13 15 15 13 16 16 17 19 20 21 19 11 10 15 15 7 16 21 18 17 16 22 18 11 11 14 16 18 7 0 7 12 8 9 17 17
10 9 3 2 5 6 11 13 15 12 13 8 10 11 11 14 12 13 14 14 12 13 11 9 8 14 18 19 6 13 18 18 19 18 23 16 20 15 13 18 11 14 13 16 17
7 4 5 6 4 6 10 13 9 7 11 14 11 15 15 17 17 15 18 14 8 12 6 9 15 20 17 22 11 8 12 15 12 12 19 20 24 12 14 15 30 14 20 16 16
3 2 3 5 6 8 11 13 16 13 7 10 8 12 12 13 14 17 19 19 16 14 8 11 19 21 22 25 24 25 26 24 23 22 20 20 25 20 24 22 19 25 27 20 16
6 6 5 19 15 11 9 11 14 12 12 16 16 15 14 16 18 20 20 18 17 17 18 16 17 19 24 23 24 25 26 23 25 24 24 26 28 24 33 33 27 28 24 17 18
8 6 5 12 11 9 10 11 14 17 12 10 11 12 15 16 20 23 25 24 19 16 16 15 11 12 17 19 16 15 21 22 20 20 21 22 23 22 19 21 20 8 11 21 17